Location: ????????
(55.6189°N, 38.3031°E)
Time: 16:09:02
(UTC+00:00)

Cosmos 1461 - Pass Details

Date: 15 November 2019
Orbit: 522 x 645 km, 65.0° (Epoch: 06 December)

Event Time Altitude Azimuth Distance (km) Brightness Sun altitude
Exits shadow 02:39:28 45° 321° (NW) 726 3.1 -19.5°
Maximum altitude 02:39:36 46° 328° (NNW) 724 3.1 -19.5°
Drops below altitude 10° 02:43:29 10° 42° (NE) 1,802 5.9 -19.0°
Sets 02:45:47 0° 49° (NE) 2,711 7.0 -18.6°
